Regional Weather Roundup
Issued by NWS Grand Forks, ND

Home | Current Version | Previous Version | Text Only | Print | Product List | Glossary On
Versions: 1 2 3 4 5 6 7 8 9 10 11 12 13 14 15 16 17 18 19 20 21 22 23 24 25 26 27 28 29 30 31 32 33 34 35 36 37 38 39 40 41 42 43 44 45 46 47 48 49 50
000
ASUS43 KFGF 220431
RWRFGF
PRAIRIE TO PINES  WEATHER ROUNDUP
NATIONAL WEATHER SERVICE EASTERN NORTH DAKOTA/GRAND FORKS ND
1000 PM CST SUN JAN 21 2018

 **SATELLITE DATA USED TO AUGMENT SKY COVER AT AUTOMATED STATIONS**
 *****  WEATHER ACROSS EASTERN NORTH DAKOTA  *****

CITY           SKY/WX    TMP DP  RH WIND       PRES   REMARKS
GRAND FORKS    CLOUDY    24  21  88 N5        30.13R WCI  18
GRAND FRKS AFB CLOUDY    23  21  93 N3        30.12S
DEVILS LAKE    CLOUDY    21  21 100 S8        30.09R FOG     WCI  12
FARGO          CLOUDY    26  22  84 NE14      30.09S WCI  14
WAHPETON ARPT  CLOUDY    27  23  86 N12       30.07S WCI  16
$$

 ***** WEATHER ACROSS CENTRAL AND WESTERN NORTH DAKOTA  *****

CITY           SKY/WX    TMP DP  RH WIND       PRES   REMARKS
BISMARCK       MOCLDY    15  14  95 NE6       30.06S FOG     WCI   6
MINOT          FAIR      17  14  88 S5        30.01S WCI  10
JAMESTOWN      CLOUDY    26  23  88 E6        30.06F WCI  19
MINOT AFB      FAIR      14  11  89 S6        30.00S WCI   5
GARRISON         N/A     13  11  92 CALM      30.02R
WILLISTON      FAIR      15  11  83 SW7       30.02R WCI   5
DICKINSON      FAIR      19  16  88 W6        29.99F WCI  11
HETTINGER      FAIR      19  16  88 NW3       30.03S
$$

 *****  OTHER AIRPORT OBSERVATIONS IN OUR AREA  *****

CITY           SKY/WX    TMP DP  RH WIND       PRES   REMARKS
WALHALLA       FAIR      21  21 100 CALM      30.12S
GRAFTON AIRPOR NOT AVBL
VALLEY CITY AR NOT AVBL
CANDO          FOG       21  21 100 S9        30.09F VSB 1/2 WCI  11
CAVALIER APRT    N/A     21  21 100 CALM      30.12S
GWINNER          N/A     25  23  93 NE16      30.07F WCI  12
SHEYENNE NWR     N/A     24  24 100 NE9       29.95S WCI  14
ROLLA          FOG       18  18 100 MISG      30.06R VSB 1/4
 ***** THE ABOVE OBSERVATIONS ARE NON NWS ARE NOT QUALITY
       CONTROLLED AND MAY MIS-REPORT RAIN FOR SNOW...
$$

  *****  WEATHER ACROSS NORTHERN MINNESOTA  *****

CITY           SKY/WX    TMP DP  RH WIND       PRES   REMARKS
FLAG ISLAND    CLOUDY    23  21  93 NE7       30.11S WCI  15
WARROAD        CLOUDY    25  19  80 CALM      30.12S
ROSEAU         CLOUDY    25  19  80 CALM      30.12R
HALLOCK        CLOUDY    21  19  93 CALM      30.12S
THF RVR FALLS  CLOUDY    23  22  96 NE5       30.11S WCI  17
BAUDETTE       CLOUDY    26  23  88 NE6       30.09R WCI  19
WASKISH        CLOUDY    25  25 100 CALM      30.09S
CROOKSTON      MOCLDY    25  23  93 CALM      30.13S
STEPHEN NDAWN    N/A     21  19  93 CALM        N/A
GREENBUSH NDAW   N/A     21  19  93 NE1         N/A
$$
  *****  WEATHER ACROSS CENTRAL AND WEST MINNESOTA  *****

CITY           SKY/WX    TMP DP  RH WIND       PRES   REMARKS
FOSSTON        CLOUDY    21  21 100 NE5       30.08S FOG     WCI  15
BEMIDJI        CLOUDY    24  24  97 N5        30.06S WCI  19
PARK RAPIDS    CLOUDY    25  22  88 NE7       30.03S WCI  17
ELBOW LAKE     CLOUDY    26  25  96 NE8       30.03S WCI  17
WADENA         CLOUDY    25  25 100 NE9       30.02F FOG     WCI  15
DETROIT LAKES  CLOUDY    28  27  93 NE8       30.05S WCI  20
MOORHEAD       CLOUDY    25  21  86 NE10      30.10R WCI  15
FERGUS FALLS   CLOUDY    27  25  93 N6        30.04S WCI  20
MORRIS MN      CLOUDY    27  27 100 N12       30.01R FOG     WCI  16
STAPLES        CLOUDY    25  23  93 N6        30.02F FOG     WCI  18
$$
  *****  WEATHER ELSEWHERE ACROSS MINNESOTA  *****

CITY           SKY/WX    TMP DP  RH WIND       PRES   REMARKS
DULUTH         LGT SNOW  29  28  96 E14G24    30.03S VSB 1   WCI  18
INTRNTL FALLS  CLOUDY    26  23  88 E6        30.09S FOG     WCI  19
ELY            FOG       27  27 100 CALM      30.06S VSB 3/4
CLOQUET        LGT SNOW  28  27  93 NE12      30.03S WCI  18
WHEATON        NOT AVBL
BRAINERD       CLOUDY    27  23  85 N8        30.04R WCI  19
HIBBING        CLOUDY    26  24  92 NE5       30.05S WCI  20
ALEXANDRIA     FAIR      26  23  88 N9        30.00F WCI  17
SAINT CLOUD    CLOUDY    32  27  81 N7        29.98R
MINNEAPOLIS    CLOUDY    36  30  79 N9        29.95R
$$

  *****  WEATHER ACROSS SOUTH DAKOTA  *****

CITY           SKY/WX    TMP DP  RH WIND       PRES   REMARKS
SIOUX FALLS    CLOUDY    35  28  75 NE21G28   29.87S WCI  24
BROOKINGS      FLURRIES  30  26  85 NE15      29.93S WCI  19
WATERTOWN      CLOUDY    25  24  96 N14       29.95F WCI  13
HURON          CLOUDY    29  27  92 N14       29.98R WCI  18
SISSETON         N/A     26  24  92 N15       30.05S WCI  14
ABERDEEN       CLOUDY    25  23  92 N12       30.05S WCI  14
MITCHELL       LGT SNOW  32  31  96 N21       29.93F FOG     WCI  20
PIERRE         CLOUDY    29  26  89 N6        30.00F WCI  23
MOBRIDGE       FAIR      24  21  88 NE7       30.01S WCI  16
RAPID CITY     FAIR      31  21  66 N15       30.00S WCI  20
$$

  *****  SOME WEATHER IN NEARBY STATES *****

CITY           SKY/WX    TMP DP  RH WIND       PRES   REMARKS
GLASGOW MT     FAIR      18  15  88 CALM      30.00S
GREAT FALLS MT FAIR      31  14  49 S16       29.91F WCI  20
CHEYENNE WY    CLOUDY    20  15  81 NW22G32   29.91F WCI   3
SCOTTSBLUFF NE CLOUDY    28  22  78 NW18      29.96S WCI  15
OMAHA NE       LGT RAIN  38  36  92 N10       29.66F FOG
DES MOINES IA  TSTM      39  38  96 NE16      29.65F VSB 1/4
DAVENPORT IA   FOG       42  40  92 E9        29.78F VSB 1/4
CHICAGO IL     FOG       43  42  97 SE7       29.85F VSB 1/8
EAU CLAIRE WI  CLOUDY    37  30  75 NE9       29.93F
LA CROSSE WI   LGT RAIN  42  33  70 E8        29.88F
$$

  *****  SOME NATIONAL WEATHER *****

CITY           SKY/WX    TMP DP  RH WIND       PRES   REMARKS
LA GUARDIA NY  CLOUDY    47  34  60 S5        30.16F
RALEIGH NC     FAIR      45  40  82 CALM      30.22S
ATLANTA GA     MOCLDY    55  43  63 SE6       30.17S
NEW ORLEANS LA MOCLDY    63  60  90 E14       30.06F
OKLAHOMA CITY  FAIR      51  14  22 SW14      29.69S
ALBUQUERQUE NM FAIR      33  11  39 N18       30.06R WCI  22
SALT LAKE CITY FAIR      29  21  72 SE8       30.28S WCI  21
LOS ANGELES CA MOCLDY    57  41  55 SW7       30.28S
BOISE ID       CLOUDY    40  23  50 W6        30.18S
SEATTLE WA     CLOUDY    43  38  82 SE10      29.99R
$$

*** WEATHER ACROSS MANITOBA...SASKATCHEWAN AND ONTARIO ***
                ***ONTARIO***

CITY           SKY/WX    TMP DP  RH WIND       PRES   REMARKS
GERALDTON      FLURRIES   3  -2  78 NE10      30.24S WCI -12
THUNDER BAY    CLOUDY    16  12  86 N6        30.20R WCI   7
SIOUX LOOKOUT  FRZ DRZL   9   5  85 E3        30.15S
TORONTO        DRZL/FOG  36  36 100 E5        30.06F VSB 1
BIG TROUT LK   CLEAR    -15 -20  76 E5        30.37S WCI -27
PICKLE LAKE    NOT AVBL
DRYDEN         CLOUDY    12  10  92 NE8       30.13R WCI   1
KENORA         CLOUDY    16  14  93 NE7       30.11S WCI   6
$$
                *** MANITOBA***

CITY           SKY/WX    TMP DP  RH WIND       PRES   REMARKS
BRANDON        CLOUDY    21  19  93 E7        30.06S WCI  13
DAUPHIN        CLOUDY    16  14  93 NE3       30.11R
ISLAND LAKE    FLURRIES  -2  -8  78 E10       30.28R WCI -19
PILOT MOUND      N/A     21  19  93 S5          N/A  WCI  15
THE PAS        FLURRIES   3  -4  72 E5        30.18R WCI  -6
THOMPSON       FLURRIES -13 -18  77 NE6       30.30S WCI -27
WINNIPEG       CLOUDY    19  14  79 CALM      30.14S
LYNN LAKE      CLEAR    -17 -22  76 E6        30.22F WCI -31
CHURCHILL      CLEAR    -24 -31  69 SW6       30.52R WCI -40
GILLAM         PTCLDY   -18 -24  76 E6        30.43  WCI -33
$$
                ***SASKATCHEWAN***

CITY           SKY/WX    TMP DP  RH WIND       PRES   REMARKS
ESTEVAN        CLEAR     12   9  85 S6        29.98S WCI   3
KINDERSLEY     PTCLDY    18  16  93 SE14      29.82F WCI   4
LLOYDMINSTER   CLOUDY    21  21 100 SE17G26   29.81S FOG     WCI   7
PRINCE ALBERT  FLURRIES  14  10  85 E8        30.05S WCI   3
REGINA         CLEAR     12  10  92 E8        29.97F WCI   1
YORKTON        FOG       23  23 100 SE8       30.00S VSB 3/4 WCI  14
N. BATTLEFORD  CLOUDY    23  21  93 SE16G24   29.92S WCI  10
LA RONGE       FLURRIES   5   3  92 NE6       30.12S WCI  -6
SASKATOON      CLOUDY    23  23 100 E14       29.96F WCI  11
SWIFT CURRENT  CLEAR     23  14  68 S13       29.86F WCI  11
$$
NOTE: THESE ARE AUTOMATED STATIONS WITH LIMITED QUALITY CONTROL
      "FAIR" INDICATES FEW OR NO CLOUDS BELOW 12,000 FEET WITH NO
      SIGNIFICANT WEATHER AND/OR OBSTRUCTIONS TO VISIBILITY.
      SKY/WX - SKY CONDITION AND SIGNIFICANT WEATHER.
      TMP - AIR TEMPERATURE.    DP   - DEWPOINT TEMPERATURE.
      RH  - RELATIVE HUMIDITY.  PRES - PRESSURE.
      HX  - HEAT INDEX.         WCI  - WIND CHILL INDEX.
$



USA.gov is the U.S. government's official web portal to all federal, state and local government web resources and services.